Regional Weather Roundup
Issued by NWS

Home | Current Version | Previous Version | Text Only | Print | Product List | Glossary Off
Versions: 1 2 3 4 5 6 7 8 9 10 11 12 13 14 15 16 17 18 19 20 21 22 23 24 25 26 27 28 29 30 31 32 33 34 35 36 37 38 39 40 41 42 43 44 45 46 47 48 49 50

364
ASUS43 KLSX 231859
RWRMO

WEATHER SUMMARY FOR MISSOURI
NATIONAL WEATHER SERVICE SPRINGFIELD MO
200 PM CDT TUE MAY 23 2017

NOTE: "FAIR" INDICATES FEW OR NO CLOUDS BELOW 12,000 FEET WITH NO
       SIGNIFICANT WEATHER AND/OR OBSTRUCTIONS TO VISIBILITY.
       CURRENT SKY AND/OR WEATHER CONDITIONS ARE NOT AVAILABLE FOR
       CHILLICOTHE AND FARMINGTON.

MOZ001>031-035>038-043-044-053-054-232000-
...NORTHERN AND WESTERN MISSOURI...

CITY           SKY/WX    TMP DP  RH WIND       PRES   REMARKS
KANSAS CTY INT MOSUNNY   65  47  52 N10       29.84F
KANSAS C DTWN  PTSUNNY   65  46  50 NW8       29.83F
LEE`S SUMMIT   CLOUDY    64  47  53 NW12      29.83F
ST JOSEPH      CLOUDY    62  47  57 NW14      29.84F
CHILLICOTHE      N/A     66  48  52 NW9       29.81F
KIRKSVILLE     MOSUNNY   65  48  54 W8        29.78F

$$
MOZ066>068-077>081-088>096-101>105-232000-
...SOUTHWEST MISSOURI...

CITY           SKY/WX    TMP DP  RH WIND       PRES   REMARKS
SPRINGFIELD    CLOUDY    65  55  70 NW13      29.81F
JOPLIN         CLOUDY    65  54  67 NW15      29.86F
BRANSON        PTSUNNY   68  54  60 NW6G22    29.80F

$$
MOZ032>034-039>042-045>050-055>058-069>072-232000-
...CENTRAL MISSOURI...

CITY           SKY/WX    TMP DP  RH WIND       PRES   REMARKS
COLUMBIA       LGT RAIN  62  56  80 NW14      29.78F
JEFFERSON CITY CLOUDY    66  55  67 NW10      29.77F
ROLLA          CLOUDY    64  58  80 NW10      29.76F
SEDALIA        MOSUNNY   66  54  65 NW12      29.82F
WARRENSBURG    CLOUDY    64  46  52 W8        29.82F
OSAGE BEACH    CLOUDY    64  56  75 NW7       29.80S

$$
MOZ051-052-059>065-232000-
...EAST CENTRAL MISSOURI...

CITY           SKY/WX    TMP DP  RH WIND       PRES   REMARKS
ST LOUIS INTL  LGT RAIN  67  58  72 NW6       29.74F
SPIRIT OF STL  CLOUDY    64  60  87 NW9       29.74S
ST CHARLES     CLOUDY    64  58  80 NW7       29.74F

$$
MOZ072>076-082>087-097>100-106>115-232000-
...SOUTH CENTRAL AND SOUTHEAST MISSOURI...

CITY           SKY/WX    TMP DP  RH WIND       PRES   REMARKS
CAPE GIRARDEAU CLOUDY    72  53  51 CALM      29.72F
FARMINGTON     CLOUDY    68  59  73 NW9       29.75F
POPLAR BLUFF   LGT RAIN  68  58  70 NW12      29.74S
WEST PLAINS    MOSUNNY   70  58  65 N6        29.76F

$$




USA.gov is the U.S. government's official web portal to all federal, state and local government web resources and services.